QPF
0.00 0.00 0.00 0.00 0.00 0.00 0.00 0.00 0.00 0.00 0.00 0.00 0.00 0.00 0.00 0.00 0.00 0.00 0.00 0.00 0.00 0.00 0.00 0.00 0.00 0.00 0.00 0.00 0.00 0.00 0.00 0.00 0.00 0.01 0.01 0.01 0.01 0.01 0.01 0.01 0.02 0.03 0.03 0.04
0.00 0.00 0.00 0.00 0.00 0.00 0.00 0.00 0.00 0.00 0.00 0.00 0.00 0.00 0.00 0.00 0.00 0.00 0.00 0.00 0.00 0.00 0.00 0.00 0.00 0.00 0.00 0.00 0.00 0.00 0.01 0.01 0.01 0.01 0.01 0.01 0.01 0.02 0.02 0.03 0.04 0.04 0.04 0.05
0.00 0.00 0.00 0.00 0.00 0.00 0.00 0.00 0.00 0.00 0.00 0.00 0.00 0.00 0.00 0.00 0.00 0.00 0.00 0.00 0.00 0.00 0.00 0.00 0.00 0.00 0.00 0.01 0.01 0.01 0.01 0.01 0.01 0.01 0.02 0.02 0.02 0.02 0.03 0.05 0.06 0.06 0.06 0.07
0.00 0.00 0.00 0.00 0.00 0.00 0.00 0.00 0.00 0.00 0.00 0.00 0.00 0.00 0.00 0.00 0.00 0.00 0.00 0.00 0.00 0.00 0.00 0.00 0.00 0.00 0.01 0.01 0.01 0.01 0.01 0.01 0.01 0.02 0.02 0.02 0.03 0.04 0.06 0.07 0.07 0.07 0.07 0.08
0.00 0.00 0.00 0.00 0.00 0.00 0.00 0.00 0.00 0.00 0.00 0.00 0.00 0.00 0.00 0.00 0.00 0.00 0.00 0.00 0.00 0.00 0.00 0.00 0.00 0.01 0.01 0.01 0.01 0.01 0.01 0.01 0.01 0.02 0.02 0.03 0.03 0.05 0.07 0.08 0.08 0.08 0.08 0.09
0.00 0.00 0.00 0.00 0.00 0.00 0.00 0.00 0.00 0.00 0.00 0.00 0.00 0.00 0.00 0.00 0.00 0.00 0.00 0.00 0.00 0.00 0.00 0.00 0.01 0.02 0.02 0.01 0.01 0.01 0.01 0.01 0.01 0.02 0.03 0.04 0.05 0.06 0.08 0.09 0.08 0.09 0.08 0.10
0.00 0.00 0.00 0.00 0.00 0.00 0.00 0.00 0.00 0.00 0.00 0.00 0.00 0.00 0.00 0.00 0.00 0.00 0.00 0.00 0.00 0.00 0.00 0.01 0.02 0.02 0.02 0.01 0.01 0.01 0.01 0.01 0.01 0.03 0.04 0.04 0.06 0.07 0.08 0.09 0.09 0.09 0.09 0.10
0.00 0.00 0.00 0.00 0.00 0.00 0.00 0.00 0.00 0.00 0.00 0.00 0.00 0.00 0.00 0.00 0.00 0.00 0.00 0.00 0.00 0.00 0.00 0.01 0.02 0.02 0.02 0.01 0.01 0.01 0.01 0.01 0.02 0.03 0.03 0.03 0.06 0.07 0.09 0.10 0.09 0.10 0.10 0.11
0.00 0.00 0.00 0.00 0.00 0.00 0.00 0.00 0.00 0.00 0.00 0.00 0.00 0.00 0.00 0.00 0.00 0.00 0.00 0.00 0.00 0.00 0.00 0.01 0.02 0.02 0.01 0.01 0.01 0.01 0.01 0.01 0.02 0.02 0.03 0.06 0.09 0.09 0.10 0.11 0.11 0.10 0.10 0.11
0.00 0.00 0.00 0.00 0.00 0.00 0.00 0.00 0.00 0.00 0.00 0.00 0.00 0.00 0.00 0.00 0.00 0.00 0.00 0.00 0.00 0.00 0.01 0.01 0.01 0.01 0.01 0.01 0.01 0.01 0.01 0.01 0.02 0.02 0.03 0.06 0.09 0.09 0.10 0.12 0.09 0.08 0.08 0.10
0.00 0.00 0.00 0.00 0.00 0.00 0.00 0.00 0.00 0.00 0.00 0.00 0.00 0.00 0.00 0.00 0.00 0.00 0.00 0.00 0.00 0.00 0.01 0.01 0.01 0.01 0.01 0.01 0.01 0.01 0.01 0.01 0.01 0.02 0.04 0.07 0.09 0.10 0.07 0.07 0.03 0.02 0.04 0.07
0.00 0.00 0.00 0.00 0.00 0.00 0.00 0.00 0.00 0.00 0.00 0.00 0.00 0.00 0.00 0.00 0.00 0.00 0.00 0.00 0.00 0.00 0.01 0.00 0.00 0.01 0.01 0.01 0.01 0.01 0.01 0.01 0.01 0.02 0.05 0.08 0.09 0.10 0.07 0.02 0.00 0.00 0.00 0.01
0.00 0.00 0.00 0.00 0.00 0.00 0.00 0.00 0.00 0.00 0.00 0.00 0.00 0.00 0.00 0.00 0.00 0.00 0.00 0.00 0.00 0.00 0.00 0.00 0.01 0.01 0.01 0.00 0.01 0.01 0.01 0.01 0.01 0.03 0.06 0.09 0.10 0.12 0.15 0.10 0.03 0.01 0.00 0.00
0.00 0.00 0.00 0.00 0.00 0.00 0.00 0.00 0.00 0.00 0.00 0.00 0.00 0.00 0.00 0.00 0.00 0.00 0.00 0.00 0.00 0.00 0.00 0.00 0.01 0.00 0.00 0.00 0.00 0.01 0.01 0.01 0.02 0.04 0.08 0.11 0.11 0.12 0.14 0.17 0.15 0.09 0.03 0.00
0.00 0.00 0.00 0.00 0.00 0.00 0.00 0.00 0.00 0.00 0.00 0.00 0.00 0.00 0.00 0.00 0.00 0.00 0.00 0.00 0.00 0.00 0.00 0.00 0.00 0.00 0.00 0.00 0.00 0.00 0.01 0.01 0.02 0.03 0.07 0.11 0.12 0.12 0.12 0.15 0.17 0.15 0.10 0.03
0.00 0.00 0.00 0.00 0.00 0.00 0.00 0.00 0.00 0.00 0.00 0.00 0.00 0.00 0.00 0.00 0.00 0.00 0.00 0.00 0.00 0.00 0.00 0.00 0.00 0.00 0.00 0.00 0.00 0.00 0.01 0.01 0.01 0.02 0.05 0.10 0.11 0.11 0.11 0.14 0.15 0.14 0.13 0.07
0.00 0.00 0.00 0.00 0.00 0.00 0.00 0.00 0.00 0.00 0.00 0.00 0.00 0.00 0.00 0.00 0.00 0.00 0.00 0.00 0.00 0.00 0.00 0.00 0.00 0.00 0.00 0.00 0.00 0.00 0.00 0.01 0.02 0.02 0.05 0.08 0.09 0.09 0.10 0.12 0.13 0.13 0.10 0.04
0.00 0.00 0.00 0.00 0.00 0.00 0.00 0.00 0.00 0.00 0.00 0.00 0.00 0.00 0.00 0.00 0.00 0.00 0.00 0.00 0.00 0.00 0.00 0.00 0.00 0.00 0.00 0.00 0.00 0.00 0.01 0.01 0.03 0.02 0.04 0.06 0.05 0.08 0.11 0.11 0.11 0.11 0.10 0.03
0.00 0.00 0.00 0.00 0.00 0.00 0.00 0.00 0.00 0.00 0.00 0.00 0.00 0.00 0.00 0.00 0.00 0.00 0.00 0.00 0.00 0.00 0.00 0.00 0.00 0.00 0.00 0.00 0.00 0.00 0.01 0.01 0.02 0.02 0.03 0.04 0.04 0.07 0.10 0.10 0.09 0.09 0.08 0.06
0.00 0.00 0.00 0.00 0.00 0.00 0.00 0.00 0.00 0.00 0.00 0.00 0.00 0.00 0.00 0.00 0.00 0.00 0.00 0.00 0.00 0.00 0.00 0.00 0.00 0.00 0.00 0.00 0.00 0.00 0.00 0.01 0.01 0.02 0.02 0.03 0.05 0.06 0.08 0.08 0.07 0.07 0.06 0.06
0.00 0.00 0.00 0.00 0.00 0.00 0.00 0.00 0.00 0.00 0.00 0.00 0.00 0.00 0.00 0.00 0.00 0.00 0.00 0.00 0.00 0.00 0.00 0.00 0.00 0.00 0.00 0.00 0.00 0.00 0.00 0.01 0.01 0.02 0.02 0.03 0.04 0.06 0.07 0.08 0.09 0.08 0.06 0.06
0.00 0.00 0.00 0.00 0.00 0.00 0.00 0.00 0.00 0.00 0.00 0.00 0.00 0.00 0.00 0.00 0.00 0.00 0.00 0.00 0.00 0.00 0.00 0.00 0.00 0.00 0.00 0.00 0.00 0.00 0.00 0.00 0.01 0.02 0.02 0.02 0.03 0.06 0.07 0.07 0.09 0.10 0.10 0.08
0.00 0.00 0.00 0.00 0.00 0.00 0.00 0.00 0.00 0.00 0.00 0.00 0.00 0.00 0.00 0.00 0.00 0.00 0.00 0.00 0.00 0.00 0.00 0.00 0.00 0.00 0.00 0.00 0.00 0.00 0.00 0.00 0.00 0.01 0.02 0.02 0.02 0.04 0.06 0.05 0.08 0.10 0.10 0.08
0.00 0.00 0.00 0.00 0.00 0.00 0.00 0.00 0.00 0.00 0.00 0.00 0.00 0.00 0.00 0.01 0.01 0.01 0.00 0.00 0.00 0.00 0.00 0.00 0.00 0.00 0.00 0.00 0.00 0.00 0.00 0.00 0.00 0.00 0.01 0.01 0.01 0.02 0.05 0.05 0.06 0.08 0.09 0.08
0.00 0.00 0.00 0.00 0.00 0.00 0.00 0.00 0.00 0.00 0.00 0.01 0.01 0.01 0.02 0.02 0.03 0.02 0.01 0.01 0.01 0.00 0.00 0.00 0.00 0.00 0.00 0.00 0.00 0.00 0.00 0.00 0.00 0.00 0.01 0.01 0.01 0.01 0.02 0.04 0.05 0.05 0.05 0.09
0.00 0.00 0.00 0.00 0.00 0.00 0.00 0.00 0.00 0.01 0.01 0.02 0.03 0.03 0.04 0.05 0.05 0.04 0.02 0.02 0.01 0.00 0.00 0.00 0.00 0.00 0.00 0.00 0.00 0.00 0.00 0.00 0.00 0.00 0.00 0.01 0.01 0.01 0.01 0.02 0.04 0.05 0.04 0.05
0.00 0.00 0.00 0.00 0.00 0.00 0.00 0.00 0.01 0.02 0.03 0.04 0.06 0.09 0.09 0.07 0.06 0.05 0.04 0.03 0.01 0.01 0.00 0.00 0.00 0.00 0.00 0.00 0.00 0.00 0.00 0.00 0.00 0.00 0.00 0.00 0.00 0.01 0.01 0.01 0.02 0.03 0.06 0.06
MSLP
1010.66 1010.69 1010.68 1010.64 1010.61 1010.59 1010.58 1010.58 1010.58 1010.56 1010.53 1010.49 1010.46 1010.47 1010.52 1010.64 1010.81 1011.03 1011.27 1011.49 1011.66 1011.76 1011.77 1011.69 1011.54 1011.35 1011.14 1010.93 1010.75 1010.60 1010.45 1010.31 1010.14 1009.94 1009.68 1009.36 1009.02 1008.65 1008.29 1007.97 1007.69 1007.46 1007.27 1007.11
1010.90 1010.98 1010.96 1010.88 1010.76 1010.63 1010.51 1010.41 1010.34 1010.30 1010.29 1010.33 1010.40 1010.52 1010.67 1010.85 1011.04 1011.23 1011.40 1011.51 1011.56 1011.53 1011.44 1011.29 1011.11 1010.92 1010.74 1010.58 1010.45 1010.33 1010.21 1010.07 1009.89 1009.64 1009.32 1008.96 1008.55 1008.14 1007.74 1007.39 1007.10 1006.86 1006.68 1006.53
1010.99 1011.08 1011.06 1010.95 1010.78 1010.58 1010.39 1010.23 1010.12 1010.08 1010.11 1010.20 1010.35 1010.54 1010.76 1010.97 1011.15 1011.29 1011.37 1011.37 1011.29 1011.15 1010.96 1010.75 1010.54 1010.35 1010.21 1010.10 1010.03 1009.97 1009.89 1009.76 1009.57 1009.29 1008.94 1008.52 1008.06 1007.60 1007.16 1006.77 1006.44 1006.19 1005.99 1005.82
1010.92 1011.00 1010.97 1010.83 1010.63 1010.39 1010.16 1009.97 1009.85 1009.82 1009.88 1010.02 1010.23 1010.47 1010.71 1010.93 1011.10 1011.18 1011.17 1011.07 1010.88 1010.64 1010.38 1010.12 1009.89 1009.72 1009.61 1009.56 1009.54 1009.53 1009.49 1009.39 1009.19 1008.90 1008.52 1008.05 1007.54 1007.03 1006.53 1006.10 1005.73 1005.43 1005.20 1005.01
1010.71 1010.76 1010.69 1010.53 1010.30 1010.04 1009.79 1009.60 1009.48 1009.47 1009.55 1009.73 1009.97 1010.25 1010.51 1010.73 1010.87 1010.91 1010.84 1010.66 1010.41 1010.10 1009.79 1009.50 1009.27 1009.11 1009.04 1009.03 1009.06 1009.09 1009.07 1008.98 1008.79 1008.48 1008.06 1007.55 1007.00 1006.43 1005.88 1005.39 1004.98 1004.64 1004.36 1004.14
1010.39 1010.36 1010.24 1010.05 1009.80 1009.53 1009.28 1009.09 1009.00 1009.00 1009.11 1009.32 1009.59 1009.88 1010.16 1010.39 1010.51 1010.53 1010.43 1010.22 1009.93 1009.60 1009.27 1008.99 1008.77 1008.64 1008.59 1008.61 1008.66 1008.70 1008.70 1008.60 1008.39 1008.05 1007.59 1007.04 1006.44 1005.82 1005.23 1004.69 1004.22 1003.84 1003.53 1003.28
1009.94 1009.83 1009.65 1009.41 1009.15 1008.88 1008.65 1008.48 1008.41 1008.44 1008.58 1008.81 1009.11 1009.42 1009.72 1009.95 1010.09 1010.11 1010.01 1009.81 1009.53 1009.22 1008.91 1008.65 1008.45 1008.34 1008.31 1008.34 1008.40 1008.43 1008.40 1008.27 1008.02 1007.64 1007.13 1006.54 1005.89 1005.23 1004.59 1004.01 1003.51 1003.10 1002.77 1002.51
1009.35 1009.15 1008.91 1008.65 1008.38 1008.13 1007.92 1007.79 1007.76 1007.83 1008.00 1008.26 1008.58 1008.92 1009.23 1009.49 1009.65 1009.70 1009.64 1009.48 1009.25 1008.98 1008.72 1008.50 1008.34 1008.25 1008.22 1008.24 1008.27 1008.26 1008.18 1008.00 1007.69 1007.25 1006.70 1006.06 1005.37 1004.67 1004.01 1003.41 1002.90 1002.48 1002.15 1001.90
1008.60 1008.32 1008.04 1007.76 1007.51 1007.29 1007.13 1007.06 1007.08 1007.19 1007.41 1007.70 1008.05 1008.41 1008.76 1009.04 1009.24 1009.34 1009.33 1009.24 1009.07 1008.87 1008.67 1008.50 1008.38 1008.30 1008.27 1008.27 1008.25 1008.18 1008.03 1007.77 1007.39 1006.88 1006.27 1005.59 1004.87 1004.15 1003.48 1002.88 1002.38 1001.99 1001.69 1001.48
1007.67 1007.34 1007.04 1006.77 1006.55 1006.39 1006.30 1006.29 1006.38 1006.56 1006.82 1007.16 1007.54 1007.93 1008.30 1008.62 1008.86 1009.01 1009.07 1009.05 1008.96 1008.83 1008.70 1008.58 1008.49 1008.42 1008.38 1008.33 1008.25 1008.11 1007.87 1007.53 1007.07 1006.49 1005.83 1005.11 1004.37 1003.66 1003.01 1002.44 1001.98 1001.62 1001.38 1001.23
1006.57 1006.22 1005.93 1005.70 1005.53 1005.44 1005.43 1005.51 1005.67 1005.92 1006.24 1006.63 1007.05 1007.47 1007.87 1008.22 1008.51 1008.71 1008.82 1008.86 1008.84 1008.79 1008.71 1008.63 1008.57 1008.50 1008.43 1008.34 1008.19 1007.97 1007.65 1007.22 1006.68 1006.05 1005.35 1004.61 1003.87 1003.18 1002.56 1002.04 1001.64 1001.35 1001.18 1001.09
1005.36 1005.02 1004.76 1004.57 1004.47 1004.46 1004.54 1004.70 1004.95 1005.27 1005.66 1006.09 1006.55 1007.01 1007.44 1007.82 1008.14 1008.38 1008.54 1008.64 1008.67 1008.67 1008.64 1008.59 1008.53 1008.46 1008.36 1008.22 1008.00 1007.71 1007.31 1006.80 1006.20 1005.52 1004.79 1004.05 1003.32 1002.67 1002.10 1001.65 1001.32 1001.11 1001.01 1001.00
1004.15 1003.83 1003.60 1003.47 1003.44 1003.50 1003.65 1003.89 1004.22 1004.61 1005.05 1005.54 1006.04 1006.53 1006.99 1007.39 1007.74 1008.01 1008.21 1008.34 1008.42 1008.45 1008.44 1008.41 1008.36 1008.27 1008.14 1007.94 1007.67 1007.30 1006.84 1006.27 1005.62 1004.91 1004.16 1003.43 1002.73 1002.12 1001.61 1001.23 1000.97 1000.83 1000.80 1000.84
1003.06 1002.77 1002.58 1002.48 1002.50 1002.61 1002.82 1003.12 1003.50 1003.94 1004.44 1004.97 1005.50 1006.03 1006.51 1006.95 1007.32 1007.62 1007.84 1008.00 1008.10 1008.15 1008.16 1008.13 1008.06 1007.95 1007.78 1007.54 1007.21 1006.79 1006.27 1005.66 1004.98 1004.24 1003.49 1002.77 1002.11 1001.54 1001.08 1000.76 1000.56 1000.48 1000.50 1000.58
1002.25 1001.98 1001.80 1001.72 1001.75 1001.88 1002.11 1002.43 1002.84 1003.32 1003.85 1004.40 1004.97 1005.53 1006.04 1006.50 1006.90 1007.22 1007.47 1007.64 1007.75 1007.81 1007.82 1007.79 1007.71 1007.57 1007.37 1007.08 1006.71 1006.25 1005.69 1005.04 1004.33 1003.58 1002.83 1002.12 1001.48 1000.94 1000.53 1000.24 1000.09 1000.04 1000.08 1000.19
1001.82 1001.56 1001.38 1001.28 1001.28 1001.39 1001.60 1001.91 1002.31 1002.78 1003.32 1003.90 1004.49 1005.06 1005.61 1006.09 1006.52 1006.86 1007.13 1007.32 1007.44 1007.50 1007.51 1007.47 1007.37 1007.21 1006.98 1006.66 1006.25 1005.75 1005.16 1004.48 1003.76 1003.00 1002.25 1001.54 1000.91 1000.39 999.99 999.72 999.58 999.54 999.59 999.68
1001.85 1001.58 1001.36 1001.22 1001.16 1001.20 1001.35 1001.60 1001.95 1002.40 1002.92 1003.48 1004.08 1004.67 1005.23 1005.75 1006.19 1006.56 1006.85 1007.06 1007.19 1007.26 1007.27 1007.22 1007.10 1006.92 1006.67 1006.33 1005.90 1005.37 1004.76 1004.07 1003.32 1002.55 1001.80 1001.09 1000.46 999.93 999.53 999.25 999.10 999.04 999.06 999.13
1002.34 1002.04 1001.76 1001.54 1001.39 1001.33 1001.37 1001.53 1001.80 1002.18 1002.65 1003.19 1003.77 1004.36 1004.93 1005.46 1005.92 1006.32 1006.63 1006.85 1007.00 1007.08 1007.10 1007.05 1006.93 1006.74 1006.48 1006.13 1005.68 1005.15 1004.52 1003.82 1003.07 1002.30 1001.53 1000.81 1000.17 999.62 999.20 998.89 998.70 998.61 998.59 998.62
1003.18 1002.84 1002.49 1002.17 1001.91 1001.72 1001.64 1001.68 1001.84 1002.13 1002.52 1003.00 1003.54 1004.11 1004.67 1005.20 1005.68 1006.08 1006.41 1006.66 1006.83 1006.93 1006.96 1006.92 1006.82 1006.64 1006.38 1006.04 1005.60 1005.07 1004.45 1003.76 1003.01 1002.23 1001.46 1000.73 1000.07 999.50 999.04 998.70 998.46 998.32 998.26 998.23
1004.21 1003.82 1003.40 1002.98 1002.59 1002.28 1002.06 1001.96 1002.00 1002.17 1002.46 1002.86 1003.34 1003.86 1004.39 1004.91 1005.38 1005.80 1006.14 1006.41 1006.60 1006.72 1006.78 1006.77 1006.69 1006.54 1006.32 1006.00 1005.59 1005.09 1004.50 1003.83 1003.10 1002.34 1001.57 1000.84 1000.16 999.57 999.08 998.70 998.41 998.22 998.11 998.03
1005.24 1004.80 1004.31 1003.79 1003.29 1002.85 1002.50 1002.27 1002.18 1002.22 1002.40 1002.71 1003.10 1003.55 1004.04 1004.52 1004.97 1005.38 1005.73 1006.02 1006.24 1006.39 1006.49 1006.52 1006.49 1006.39 1006.21 1005.95 1005.60 1005.15 1004.61 1003.98 1003.30 1002.57 1001.83 1001.11 1000.43 999.83 999.31 998.89 998.57 998.33 998.17 998.05
1006.08 1005.60 1005.05 1004.45 1003.86 1003.31 1002.84 1002.49 1002.27 1002.20 1002.27 1002.46 1002.76 1003.14 1003.56 1003.99 1004.41 1004.80 1005.15 1005.45 1005.70 1005.89 1006.04 1006.13 1006.16 1006.13 1006.03 1005.84 1005.56 1005.19 1004.73 1004.17 1003.55 1002.88 1002.18 1001.49 1000.83 1000.23 999.70 999.26 998.91 998.63 998.43 998.27
1006.62 1006.10 1005.50 1004.85 1004.18 1003.55 1003.00 1002.55 1002.23 1002.05 1002.01 1002.11 1002.31 1002.60 1002.94 1003.32 1003.70 1004.07 1004.42 1004.73 1005.01 1005.25 1005.45 1005.61 1005.72 1005.77 1005.76 1005.66 1005.48 1005.21 1004.83 1004.37 1003.83 1003.23 1002.60 1001.95 1001.33 1000.74 1000.22 999.77 999.39 999.09 998.85 998.65
1006.80 1006.25 1005.62 1004.94 1004.23 1003.56 1002.95 1002.43 1002.04 1001.77 1001.65 1001.65 1001.77 1001.98 1002.25 1002.57 1002.91 1003.26 1003.60 1003.93 1004.24 1004.53 1004.79 1005.03 1005.22 1005.37 1005.45 1005.46 1005.38 1005.21 1004.94 1004.58 1004.13 1003.62 1003.06 1002.47 1001.89 1001.33 1000.82 1000.37 999.97 999.64 999.37 999.15
1006.66 1006.10 1005.46 1004.76 1004.05 1003.36 1002.72 1002.17 1001.73 1001.42 1001.23 1001.17 1001.22 1001.36 1001.58 1001.85 1002.16 1002.49 1002.83 1003.18 1003.53 1003.87 1004.19 1004.50 1004.78 1005.01 1005.19 1005.30 1005.32 1005.25 1005.09 1004.82 1004.47 1004.04 1003.55 1003.03 1002.49 1001.96 1001.47 1001.01 1000.61 1000.26 999.95 999.70
1006.31 1005.75 1005.11 1004.43 1003.73 1003.05 1002.42 1001.87 1001.42 1001.08 1000.86 1000.76 1000.76 1000.86 1001.04 1001.28 1001.58 1001.90 1002.25 1002.62 1003.01 1003.39 1003.78 1004.15 1004.50 1004.82 1005.08 1005.27 1005.38 1005.40 1005.32 1005.14 1004.87 1004.51 1004.09 1003.61 1003.12 1002.62 1002.13 1001.67 1001.25 1000.88 1000.55 1000.25
1005.88 1005.32 1004.70 1004.05 1003.38 1002.74 1002.14 1001.62 1001.19 1000.86 1000.64 1000.52 1000.51 1000.60 1000.76 1000.99 1001.28 1001.61 1001.98 1002.37 1002.79 1003.22 1003.66 1004.08 1004.49 1004.87 1005.19 1005.45 1005.62 1005.70 1005.69 1005.57 1005.35 1005.05 1004.67 1004.24 1003.77 1003.28 1002.80 1002.33 1001.89 1001.48 1001.12 1000.79
Thickness
5773 5781 5779 5773 5770 5767 5756 5748 5736 5736 5736 5739 5737 5732 5728 5722 5714 5705 5696 5688 5679 5672 5666 5659 5652 5645 5639 5633 5627 5621 5614 5608 5603 5600 5596 5592 5588 5584 5581 5576 5572 5568 5563 5559
5762 5772 5774 5770 5771 5766 5758 5752 5745 5740 5736 5744 5741 5735 5725 5717 5708 5699 5691 5683 5675 5668 5660 5653 5646 5640 5634 5628 5622 5615 5607 5602 5597 5592 5588 5584 5579 5575 5571 5566 5560 5555 5549 5545
5746 5764 5765 5754 5767 5764 5757 5756 5747 5732 5735 5739 5731 5724 5719 5714 5705 5695 5685 5678 5670 5662 5655 5649 5643 5636 5629 5623 5616 5608 5601 5596 5590 5585 5580 5576 5571 5567 5561 5555 5549 5543 5538 5533
5746 5747 5727 5759 5781 5771 5757 5752 5751 5746 5741 5734 5728 5725 5722 5714 5700 5689 5681 5673 5665 5658 5652 5647 5641 5633 5625 5618 5610 5603 5595 5589 5583 5578 5573 5568 5563 5558 5552 5546 5540 5535 5530 5525
5739 5734 5744 5760 5769 5764 5749 5741 5753 5743 5736 5733 5732 5721 5710 5704 5696 5687 5678 5669 5663 5656 5651 5644 5637 5630 5621 5613 5606 5598 5591 5583 5577 5571 5566 5562 5557 5551 5546 5540 5534 5528 5524 5519
5740 5726 5723 5754 5773 5772 5752 5732 5745 5740 5731 5727 5723 5706 5704 5702 5695 5686 5677 5669 5662 5655 5649 5641 5634 5626 5616 5608 5600 5592 5585 5577 5571 5565 5561 5557 5552 5547 5541 5535 5530 5525 5520 5515
5738 5733 5747 5767 5769 5764 5730 5723 5740 5738 5731 5725 5716 5707 5705 5703 5694 5684 5675 5667 5660 5652 5644 5637 5630 5622 5611 5603 5595 5588 5580 5573 5567 5561 5557 5554 5550 5545 5539 5533 5528 5522 5518 5513
5746 5734 5737 5763 5760 5746 5740 5748 5744 5738 5733 5726 5719 5713 5707 5699 5689 5681 5672 5664 5657 5648 5641 5634 5627 5617 5608 5599 5591 5583 5576 5569 5564 5559 5555 5553 5547 5542 5537 5532 5526 5521 5517 5512
5754 5749 5759 5767 5762 5763 5760 5749 5744 5739 5735 5727 5718 5710 5703 5695 5686 5677 5669 5661 5653 5646 5638 5631 5623 5613 5603 5595 5587 5579 5571 5565 5561 5557 5554 5550 5545 5541 5536 5532 5526 5521 5516 5511
5755 5759 5764 5767 5768 5767 5762 5753 5749 5743 5735 5727 5716 5708 5699 5691 5682 5673 5666 5657 5650 5642 5634 5627 5619 5610 5600 5591 5583 5574 5568 5563 5559 5556 5553 5549 5545 5540 5535 5531 5526 5521 5515 5510
5753 5760 5763 5764 5765 5764 5761 5757 5751 5744 5736 5727 5716 5705 5697 5687 5678 5669 5661 5654 5646 5638 5630 5623 5615 5606 5596 5587 5578 5571 5565 5560 5557 5554 5551 5548 5544 5540 5535 5532 5525 5517 5514 5509
5752 5763 5757 5756 5763 5765 5759 5753 5748 5741 5733 5726 5716 5704 5694 5683 5675 5666 5658 5650 5642 5635 5627 5620 5612 5602 5593 5584 5575 5568 5563 5559 5556 5553 5551 5547 5544 5541 5537 5531 5523 5516 5508 5501
5772 5775 5771 5768 5767 5766 5760 5755 5750 5742 5732 5721 5713 5702 5690 5679 5671 5663 5655 5646 5638 5631 5624 5617 5609 5599 5590 5581 5573 5566 5561 5558 5555 5554 5551 5547 5545 5541 5538 5534 5525 5518 5511 5504
5777 5773 5764 5763 5761 5761 5758 5756 5751 5743 5734 5722 5710 5698 5687 5676 5667 5658 5650 5643 5635 5628 5621 5614 5605 5596 5587 5579 5572 5566 5562 5559 5556 5555 5552 5549 5547 5544 5541 5536 5533 5529 5518 5509
5771 5770 5766 5766 5762 5758 5755 5751 5743 5736 5727 5716 5706 5694 5682 5671 5661 5653 5647 5640 5632 5624 5618 5610 5601 5593 5585 5577 5571 5567 5563 5561 5558 5556 5554 5552 5550 5547 5543 5539 5536 5532 5528 5518
5763 5764 5762 5757 5752 5749 5746 5742 5735 5729 5722 5712 5701 5690 5679 5668 5658 5649 5643 5635 5627 5620 5612 5606 5598 5591 5583 5576 5571 5567 5565 5562 5558 5558 5557 5555 5553 5549 5545 5541 5538 5535 5531 5528
5747 5743 5742 5740 5740 5739 5737 5735 5730 5725 5717 5707 5696 5685 5673 5661 5651 5644 5637 5630 5623 5617 5611 5604 5596 5587 5581 5576 5571 5567 5565 5563 5560 5560 5559 5556 5554 5551 5547 5543 5540 5537 5535 5530
5739 5735 5733 5731 5729 5727 5727 5727 5725 5719 5711 5703 5692 5678 5665 5654 5644 5637 5630 5625 5619 5614 5610 5601 5592 5584 5580 5576 5570 5566 5564 5562 5561 5560 5559 5557 5555 5552 5549 5545 5543 5540 5538 5533
5724 5721 5720 5718 5718 5717 5715 5714 5713 5710 5704 5694 5681 5668 5657 5647 5639 5633 5626 5619 5614 5610 5603 5597 5586 5583 5580 5575 5567 5566 5564 5561 5560 5560 5559 5557 5557 5555 5551 5547 5545 5542 5540 5538
5705 5704 5703 5703 5703 5702 5701 5701 5699 5695 5688 5680 5668 5657 5647 5640 5634 5627 5621 5614 5612 5606 5596 5590 5584 5582 5578 5573 5564 5565 5563 5560 5559 5558 5558 5558 5556 5554 5552 5549 5546 5544 5542 5540
5682 5683 5683 5683 5682 5683 5683 5683 5681 5677 5672 5665 5655 5646 5639 5633 5627 5621 5614 5610 5607 5598 5591 5586 5583 5579 5574 5565 5562 5565 5562 5558 5556 5555 5556 5556 5555 5554 5552 5550 5548 5545 5544 5542
5658 5659 5659 5661 5661 5661 5663 5664 5664 5661 5657 5651 5645 5638 5631 5624 5619 5614 5611 5605 5601 5587 5586 5586 5582 5571 5565 5560 5564 5563 5559 5555 5553 5552 5552 5553 5553 5553 5552 5551 5549 5547 5544 5542
5637 5637 5638 5639 5640 5641 5645 5646 5647 5647 5644 5640 5634 5629 5624 5619 5614 5609 5604 5602 5596 5583 5580 5580 5569 5565 5559 5562 5562 5559 5555 5551 5549 5549 5549 5550 5552 5552 5552 5551 5549 5547 5544 5543
5618 5618 5619 5621 5624 5624 5626 5630 5633 5634 5633 5630 5628 5624 5618 5612 5607 5605 5600 5588 5582 5576 5576 5569 5564 5561 5557 5560 5558 5554 5550 5546 5544 5544 5544 5546 5548 5550 5551 5551 5550 5548 5546 5544
5601 5602 5603 5604 5606 5610 5614 5619 5621 5623 5623 5622 5621 5619 5614 5608 5601 5597 5592 5584 5574 5569 5569 5564 5558 5556 5557 5557 5553 5548 5545 5541 5538 5537 5538 5540 5542 5545 5548 5549 5549 5549 5548 5546
5586 5587 5590 5590 5592 5594 5599 5602 5604 5607 5610 5611 5611 5611 5607 5601 5593 5587 5580 5575 5571 5563 5562 5561 5558 5554 5555 5552 5547 5543 5539 5536 5534 5533 5532 5534 5536 5539 5543 5545 5547 5548 5548 5548
5571 5574 5576 5579 5583 5585 5588 5589 5591 5592 5594 5594 5594 5595 5594 5589 5582 5576 5570 5566 5563 5560 5558 5556 5554 5551 5548 5543 5539 5535 5531 5528 5526 5525 5526 5527 5530 5533 5536 5539 5542 5545 5546 5548